Regional Weather Roundup
Issued by NWS

Home | Current Version | Previous Version | Graphics & Text | Print | Product List | Glossary On
Versions: 1 2 3 4 5 6 7 8 9 10 11 12 13 14 15 16 17 18 19 20 21 22 23 24 25 26 27 28 29 30 31 32 33 34 35 36 37 38 39 40 41 42 43 44 45 46 47 48 49 50
000
ASUS43 KLOT 161858
RWRIL

ILLINOIS REGIONAL WEATHER ROUNDUP
NATIONAL WEATHER SERVICE CHICAGO/ROMEOVILLE IL
200 PM CDT WED APR 16 2014

NOTE: "FAIR" INDICATES FEW OR NO CLOUDS BELOW 12,000 FEET WITH NO
SIGNIFICANT WEATHER AND/OR OBSTRUCTIONS TO VISIBILITY.

* THESE STATIONS ARE NOT UNDER NWS QUALITY CONTROL. THEY ALSO MAY NOT
  REPORT WEATHER SUCH AS PRECIPITATION OR FOG.

ILZ001-002-007-009-015-016-024-162000-
NORTHWEST ILLINOIS

CITY           SKY/WX    TMP DP  RH WIND       PRES   REMARKS
MOLINE         SUNNY     56  26  31 S20G35    30.04F
$$

ILZ003-004-008-010-011-017-018-162000-
NORTH CENTRAL ILLINOIS

CITY           SKY/WX    TMP DP  RH WIND       PRES   REMARKS
ROCKFORD       NOT AVBL
$$

ILZ005-006-012>014-019>023-162000-
NORTHEAST ILLINOIS

CITY           SKY/WX    TMP DP  RH WIND       PRES   REMARKS
CHICAGO-OHARE  PTSUNNY   49  25  39 S23G30    30.21F
CHICAGO-MIDWAY CLOUDY    49  25  39 SE20G29   30.23F
AURORA         PTSUNNY   50  28  42 S24G36    30.19F
WAUKEGAN       MOSUNNY   42  26  53 SE21G32   30.21F
DUPAGE AIRPORT MOSUNNY   50  27  40 S24G31    30.19F
WHEELING       MOSUNNY   49  27  42 S21G28    30.22F
NORTHERLY ISL    N/A     47  31  54 SE20        N/A
$$

LMZ740>746-162000-
SOUTHERN LAKE MICHIGAN

STATION/POSITION SKY/WX   TEMP    WIND        PRES    VSBY  WAVE
                          AIR SEA DIR/SP/G                  HT/PER
                          (F)     (DEG/KT/KT) (MB)    (MI)  (FT/S)
WAUKEGAN HARBOR            40     140/ 20/ 25 1025.1F
HARRISON CRIB              42     160/ 19/ 25   N/A
BURNHAM HARBOR             46     130/ 17/ 22   N/A
CALUMET HARBOR             45     140/ 19/ 22 1025.1F
MICHIGAN CITY              44     130/ 15/ 26   N/A
$$

ILZ025>027-034>036-040-047-049-050-058-095>099-162000-
WEST-CENTRAL ILLINOIS

CITY           SKY/WX    TMP DP  RH WIND       PRES   REMARKS
$$

ILZ028>032-037-038-041>044-048-051>054-059>061-162000-
CENTRAL ILLINOIS

CITY           SKY/WX    TMP DP  RH WIND       PRES   REMARKS
PEORIA         NOT AVBL
SPRINGFIELD    SUNNY     55  28  35 S26G32    30.18F
TAYLORVILLE    NOT AVBL
$$

ILZ033-039-045-046-055>057-062-063-162000-
EAST-CENTRAL ILLINOIS

CITY           SKY/WX    TMP DP  RH WIND       PRES   REMARKS
MATTOON        SUNNY     49  26  41 SE13      30.23F
$$

ILZ079-100>102-162000-
SOUTHWEST ILLINOIS

CITY           SKY/WX    TMP DP  RH WIND       PRES   REMARKS
CAHOKIA*       MOSUNNY   53  29  39 S17G29    30.18F
$$

ILZ064>066-069>071-074>076-080>082-084>086-088>090-092>094-162000-
SOUTH-CENTRAL ILLINOIS

CITY           SKY/WX    TMP DP  RH WIND       PRES   REMARKS
CARBONDALE     SUNNY     55  24  30 SE15G23   30.22F
MARION         PTSUNNY   55  23  28 SE14      30.24F
$$

ILZ067-068-072-073-078-083-087-091-162000-
SOUTHEAST ILLINOIS

CITY           SKY/WX    TMP DP  RH WIND       PRES   REMARKS
$$

ABBREVIATIONS USED IN REMARKS
   TC - TEMPERATURE IN CELSIUS
  WCI - WIND CHILL INDEX
   HX - HEAT INDEX
  VSB - VISIBILITY
$$




USA.gov is the U.S. government's official web portal to all federal, state and local government web resources and services.